Location: Lesignano de� Bagni
(44.6500°N, 10.3000°E)
Time: 05:06:49
(UTC+00:00)

Cosmos 1844 - Pass Details

Date: 03 March 2021
Orbit: 822 x 868 km, 70.9° (Epoch: 13 April)

Event Time Altitude Azimuth Distance (km) Brightness Sun altitude
Rises 18:34:36 0° 335° (NNW) 3,458 7.3 -15.9°
Reaches altitude 10° 18:37:06 10° 338° (NNW) 2,514 6.5 -16.4°
Maximum altitude 18:42:53 71° 62° (ENE) 909 3.7 -17.4°
Enters shadow 18:47:05 19° 144° (SE) 1,934 5.2 -18.1°
